Flag for Germany Weather past 2 weeks in Hannover, Lower Saxony, Germany

Now
59 °F

Scattered clouds.


Feels Like: 59 °F
Forecast: 58 / 82 °F
Wind: 2 mph from North

Location: Hannover

Current Time: Jun 30, 2015 at 7:39:09 AM

Latest Report: Jun 30, 2015 at 7:20 AM


Visibility: N/A

Pressure: 30.21 "Hg

Humidity: 82%

Dew point: 54 °F

Location of HannoverLocation

Historic Weather in Hannover — Graph

°F

Hannover temperature yesterday

Maximum temperature yesterday: 79 °F (at 4:50 PM)
Minimum temperature yesterday: 59 °F (at 12:20 AM)
Average temperature yesterday: 69 °F

Past Weeks' High & Low Weather Summary

 TemperatureHumidityPressure
High79 °F (Jun 29, 4:50 PM)100% (Jun 18, 2:20 AM)30.27 "Hg (Jun 18, 2:20 AM)
Low39 °F (Jun 17, 3:20 AM)32% (Jun 16, 5:50 PM)29.65 "Hg (Jun 22, 9:20 PM)
Average58 °F76%30.04 "Hg
* Reported Jun 15 6:20 AM — Jun 30 6:50 AM, Hannover, Weather by CustomWeather, © 2015

Note: Actual official high and low records may vary slightly from our data, if they occured in-between our weather recording intervals... More about our weather records

Advertising

Hannover weather history for previous 24 hours

 ConditionsComfort  
Time TempWeatherWind HumidityBarometerVisibility
6:50 AM
Tue, Jun 30
57 °FScattered clouds.2 mph88%30.21 "HgN/A
6:20 AM55 °FFog.1 mph94%30.21 "HgN/A
5:50 AM54 °FFog.1 mph100%30.18 "HgN/A
5:20 AM54 °FFog.2 mph100%30.18 "HgN/A
4:50 AM54 °FFog.3 mph100%30.18 "HgN/A
4:20 AM54 °FFog.2 mph100%30.18 "HgN/A
3:50 AM55 °FFog.3 mph94%30.18 "HgN/A
3:20 AM55 °FPassing clouds.2 mph94%30.18 "HgN/A
2:50 AM57 °FPassing clouds.1 mph94%30.18 "HgN/A
2:20 AM59 °FPartly cloudy.5 mph88%30.18 "HgN/A
1:50 AM57 °FPartly cloudy.6 mph94%30.18 "HgN/A
1:20 AM59 °FClear.3 mph88%30.18 "Hg10 mi
12:50 AM61 °FClear.5 mph83%30.18 "Hg10 mi
12:20 AM61 °FPassing clouds.3 mph88%30.18 "HgN/A
11:20 PM
Mon, Jun 29
63 °FClear.3 mph83%30.18 "Hg10 mi
10:50 PM64 °FClear.6 mph78%30.18 "Hg10 mi
10:20 PM64 °FSunny.7 mph78%30.18 "Hg10 mi
9:50 PM68 °FPartly sunny.10 mph69%30.15 "HgN/A
9:20 PM68 °FPartly sunny.10 mph69%30.15 "HgN/A
8:50 PM70 °FPartly sunny.6 mph60%30.15 "HgN/A
8:20 PM72 °FPartly sunny.8 mph53%30.12 "HgN/A
7:50 PM73 °FPartly sunny.9 mph53%30.12 "HgN/A
7:20 PM73 °FPartly sunny.8 mph53%30.12 "HgN/A
6:50 PM75 °FPartly sunny.9 mph50%30.12 "HgN/A
6:20 PM75 °FPartly sunny.10 mph44%30.12 "HgN/A
5:50 PM75 °FPartly sunny.14 mph47%30.12 "HgN/A
5:20 PM77 °FPassing clouds.13 mph47%30.12 "HgN/A
4:50 PM79 °FPassing clouds.12 mph45%30.12 "HgN/A
4:20 PM77 °FScattered clouds.14 mph47%30.12 "HgN/A
3:50 PM77 °FScattered clouds.13 mph44%30.12 "HgN/A
3:20 PM75 °FScattered clouds.13 mph47%30.09 "HgN/A
2:50 PM77 °FScattered clouds.10 mph51%30.09 "HgN/A
2:20 PM75 °FScattered clouds.15 mph50%30.09 "HgN/A
1:50 PM75 °FScattered clouds.13 mph50%30.09 "HgN/A
1:20 PM75 °FPassing clouds.14 mph54%30.12 "HgN/A
12:50 PM75 °FPassing clouds.9 mph54%30.12 "HgN/A
12:20 PM75 °FPassing clouds.9 mph54%30.12 "HgN/A
11:50 AM73 °FPassing clouds.7 mph57%30.12 "HgN/A
11:20 AM73 °FPassing clouds.5 mph61%30.09 "HgN/A
10:50 AM72 °FPassing clouds.6 mph61%30.09 "HgN/A
10:20 AM72 °FPassing clouds.6 mph61%30.09 "HgN/A
9:50 AM70 °FPassing clouds.6 mph64%30.09 "HgN/A
9:20 AM70 °FPassing clouds.6 mph69%30.09 "HgN/A
8:50 AM68 °FPassing clouds.6 mph69%30.09 "HgN/A
8:20 AM66 °FSunny.6 mph68%30.09 "Hg10 mi
7:50 AM64 °FPassing clouds.6 mph73%30.09 "HgN/A
7:20 AM64 °FPassing clouds.5 mph73%30.09 "HgN/A
Weather by CustomWeather, © 2015

See weather overviewHow to use our weather pages